SCP
0 0 0 0 0 0 0 0 0 0 0 0 0 0 0 0 0 0 0 0 0 0
0 0 0 0 0 0 0 0 0 0 0 0 0 0 0 0 0 0 0 0 0 0
0 0 0 0 0 0 0 0 0 0 0 0 0 0 0 0 0 0 0 0 0 0
0 0 0 0 0 0 0 0 0 0 0 0 0 0 0 0 0 0 0 0 0 0
0 0 0 0 0 0 0 0 0 0 0 0 0 0 0 0 0 0 0 0 0 0
0 0 0 0 0 0 0 0 0 0 0 0 0 0 0 0 0 0 0 0 0 0
0 0 0 0 0 0 0 0 0 0 0 0 0 0 0 0 0 0 0 0 0 0
0 0 0 0 0 0 0 0 0 0 0 0 0 0 0 0 0 0 0 0 0 0
0 0 0 0 0 0 0 0 0 0 0 0 0 0 0 0 0 0 0 0 0 0
0 0 0 0 0 0 0 0 0 0 0 0 0 0 0 0 0 0 0 0 0 0
0 0 0 0 0 0 0 0 0 0 0 0 0 0 0 0 0 0 0 0 0 0
0 0 0 0 0 0 0 0 0 0 0 0 0 0 0 0 0 0 0 0 0 0
0 0 0 0 0 0 0 0 0 0 0 0 0 0 0 0 0 0 0 0 0 0
0 0 0 0 0 0 0 0 0 0 0 0 0 0 0 0 0 0 0 0 0 0
Wind_Speed_500mb
94 88 79 75 71 68 64 58 54 52 51 45 43 41 39 39 39 37 35 34 31 28
94 89 80 75 72 69 62 58 55 52 54 49 47 42 41 41 41 38 36 34 32 29
95 86 78 72 70 73 67 59 63 59 57 51 50 45 45 45 44 40 38 36 33 29
96 87 78 76 73 67 62 62 68 65 60 52 51 47 49 47 45 42 39 37 34 32
93 87 82 79 78 72 68 64 72 65 61 55 54 49 50 50 47 44 41 37 37 35
92 91 86 82 77 72 69 64 65 71 60 57 54 52 51 49 46 43 40 38 37 33
91 91 86 82 76 70 65 66 69 64 59 55 52 52 52 51 48 44 42 40 36 34
86 84 79 77 69 64 58 66 67 58 55 53 53 55 54 52 47 45 44 40 36 38
76 75 74 72 71 63 65 67 64 53 53 55 58 55 53 49 47 46 44 37 38 39
65 66 67 64 58 62 69 61 56 55 56 56 56 54 53 51 48 46 40 39 40 40
58 58 56 59 60 61 59 54 56 54 55 56 55 54 52 49 47 43 41 43 41 43
50 53 56 57 55 53 54 56 56 54 56 56 55 53 53 50 47 44 43 42 43 43
50 52 53 52 53 52 54 53 52 53 55 54 51 51 49 47 44 44 44 41 44 41
51 54 54 52 52 51 52 50 51 55 53 51 50 47 45 45 46 43 41 42 40 39
Wind_Direction_500mb
230 232 231 234 235 234 235 235 236 238 238 234 233 229 231 230 231 233 228 225 226 227
230 231 231 233 237 237 237 234 233 240 237 232 235 227 231 230 231 230 226 222 224 226
233 231 233 235 241 243 237 232 234 237 230 228 231 226 229 227 227 226 225 223 225 228
235 235 233 236 237 242 243 237 237 236 233 230 230 225 228 226 226 227 225 224 226 227
236 237 236 237 235 240 241 240 239 236 230 227 228 226 226 227 226 226 227 226 229 230
238 238 237 237 239 240 238 240 235 239 233 225 225 226 224 225 226 228 227 229 232 236
236 236 239 236 239 240 238 239 233 230 226 224 225 226 223 223 224 226 228 232 234 240
232 232 233 235 238 240 238 236 230 226 222 224 225 225 222 222 225 229 231 233 237 242
236 235 234 236 239 231 229 228 225 220 224 225 224 222 221 222 227 231 234 236 240 245
232 232 234 236 220 218 222 221 221 222 224 224 224 222 220 222 226 232 235 238 243 250
232 233 226 220 221 222 221 221 226 225 224 223 222 219 220 222 228 233 235 240 245 251
228 223 219 219 219 220 223 225 226 225 224 224 220 219 219 220 226 231 237 242 248 253
229 225 225 223 223 222 224 226 226 225 225 222 221 222 220 221 226 234 239 244 250 260
236 236 232 227 228 225 223 222 224 225 223 222 220 222 220 223 229 237 243 248 255 266
Wind_Speed_850mb
94 88 79 75 71 68 64 58 54 52 51 45 43 41 39 39 39 37 35 34 31 28
94 89 80 75 72 69 62 58 55 52 54 49 47 42 41 41 41 38 36 34 32 29
95 86 78 72 70 73 67 59 63 59 57 51 50 45 45 45 44 40 38 36 33 29
96 87 78 76 73 67 62 62 68 65 60 52 51 47 49 47 45 42 39 37 34 32
93 87 82 79 78 72 68 64 72 65 61 55 54 49 50 50 47 44 41 37 37 35
92 91 86 82 77 72 69 64 65 71 60 57 54 52 51 49 46 43 40 38 37 33
91 91 86 82 76 70 65 66 69 64 59 55 52 52 52 51 48 44 42 40 36 34
86 84 79 77 69 64 58 66 67 58 55 53 53 55 54 52 47 45 44 40 36 38
76 75 74 72 71 63 65 67 64 53 53 55 58 55 53 49 47 46 44 37 38 39
65 66 67 64 58 62 69 61 56 55 56 56 56 54 53 51 48 46 40 39 40 40
58 58 56 59 60 61 59 54 56 54 55 56 55 54 52 49 47 43 41 43 41 43
50 53 56 57 55 53 54 56 56 54 56 56 55 53 53 50 47 44 43 42 43 43
50 52 53 52 53 52 54 53 52 53 55 54 51 51 49 47 44 44 44 41 44 41
51 54 54 52 52 51 52 50 51 55 53 51 50 47 45 45 46 43 41 42 40 39
Wind_Direction_850mb
230 232 231 234 235 234 235 235 236 238 238 234 233 229 231 230 231 233 228 225 226 227
230 231 231 233 237 237 237 234 233 240 237 232 235 227 231 230 231 230 226 222 224 226
233 231 233 235 241 243 237 232 234 237 230 228 231 226 229 227 227 226 225 223 225 228
235 235 233 236 237 242 243 237 237 236 233 230 230 225 228 226 226 227 225 224 226 227
236 237 236 237 235 240 241 240 239 236 230 227 228 226 226 227 226 226 227 226 229 230
238 238 237 237 239 240 238 240 235 239 233 225 225 226 224 225 226 228 227 229 232 236
236 236 239 236 239 240 238 239 233 230 226 224 225 226 223 223 224 226 228 232 234 240
232 232 233 235 238 240 238 236 230 226 222 224 225 225 222 222 225 229 231 233 237 242
236 235 234 236 239 231 229 228 225 220 224 225 224 222 221 222 227 231 234 236 240 245
232 232 234 236 220 218 222 221 221 222 224 224 224 222 220 222 226 232 235 238 243 250
232 233 226 220 221 222 221 221 226 225 224 223 222 219 220 222 228 233 235 240 245 251
228 223 219 219 219 220 223 225 226 225 224 224 220 219 219 220 226 231 237 242 248 253
229 225 225 223 223 222 224 226 226 225 225 222 221 222 220 221 226 234 239 244 250 260
236 236 232 227 228 225 223 222 224 225 223 222 220 222 220 223 229 237 243 248 255 266